Flag Weather past 2 weeks in Charlottetown, Pr.Edward I, Canada

Now
37 °F

Passing clouds.


Feels Like: 33 °F
Forecast: N/A
Wind: 6 mph from West

Location: Charlottetown

Current Time: Nov 23, 2014 at 6:41:28 PM

Latest Report: Nov 23, 2014 at 6:00 PM


Visibility: 15 mi

Pressure: 30.11 "Hg

Humidity: 70%

Dew point: 28 °F

Location of CharlottetownLocation

Historic Weather in Charlottetown — Graph

°F

Charlottetown temperature yesterday

Maximum temperature yesterday: 34 °F (at 9:50 PM)
Minimum temperature yesterday: 19 °F (at 5:00 AM)
Average temperature yesterday: 25 °F

Past Weeks' High & Low Weather Summary

 TemperatureHumidityPressure
High55 °F (Nov 18, 6:00 AM)100% (Nov 10, 3:00 AM)30.31 "Hg (Nov 10, 3:00 AM)
Low19 °F (Nov 22, 5:00 AM)43% (Nov 18, 11:00 PM)29.23 "Hg (Nov 18, 8:00 AM)
Average35 °F79%29.92 "Hg
* Reported Nov 8 5:00 PM — Nov 23 5:00 PM, Charlottetown, Weather by CustomWeather, © 2014

Note: Actual official high and low records may vary slightly from our data, if they occured in-between our weather recording intervals... More about our weather records

Advertising

Charlottetown weather history for previous 24 hours

 ConditionsComfort  
Time TempWeatherWind HumidityBarometerVisibility
5:00 PM
Nov 23
37 °FPassing clouds.7 mph65%30.08 "Hg15 mi
4:00 PM39 °FBroken clouds.7 mph65%30.04 "Hg15 mi
3:00 PM41 °FPartly sunny.8 mph61%30.02 "Hg15 mi
2:00 PM41 °FPartly sunny.8 mph66%29.99 "Hg15 mi
1:00 PM39 °FPassing clouds.9 mph70%29.97 "Hg15 mi
12:00 PM37 °FSunny.10 mph75%29.95 "Hg15 mi
11:00 AM37 °FSunny.12 mph75%29.95 "Hg15 mi
10:00 AM34 °FScattered clouds.10 mph87%29.94 "Hg15 mi
9:00 AM34 °FBroken clouds.12 mph87%29.91 "Hg15 mi
8:00 AM34 °FPartly sunny.12 mph87%29.88 "Hg15 mi
7:00 AM34 °FPassing clouds.13 mph81%29.85 "Hg15 mi
6:00 AM34 °FSnow flurries. Mostly cloudy.10 mph87%29.83 "Hg15 mi
5:00 AM34 °FSnow flurries. Passing clouds.13 mph87%29.82 "Hg10 mi
4:00 AM32 °FLight snow. Mostly cloudy.10 mph100%29.80 "Hg7 mi
3:00 AM32 °FLight snow. Low clouds.12 mph100%29.81 "Hg2 mi
2:00 AM32 °FLight snow. Low clouds.12 mph100%29.82 "Hg2 mi
1:46 AM34 °FLight snow. Fog.15 mph87%29.81 "Hg2 mi
1:00 AM34 °FLight snow. Mostly cloudy.15 mph93%29.82 "Hg2 mi
12:00 AM32 °FLight snow. Mostly cloudy.10 mph100%29.84 "Hg2 mi
11:00 PM
Nov 22
32 °FLight snow. Partly cloudy.13 mph100%29.83 "Hg1 mi
10:00 PM34 °FLight snow. Low clouds.13 mph87%29.83 "Hg2 mi
9:50 PM34 °FLight snow. Mostly cloudy.12 mph93%29.84 "Hg3 mi
9:00 PM32 °FLight snow. Low clouds.12 mph100%29.83 "Hg1 mi
8:00 PM32 °FLight snow. Overcast.13 mph80%29.85 "Hg3 mi
7:00 PM32 °FLight snow. Mostly cloudy.12 mph69%29.87 "Hg15 mi
6:00 PM30 °FOvercast.12 mph64%29.90 "Hg15 mi
Weather by CustomWeather, © 2014

See weather overviewHow to use our weather pages